DW5595 Weather Reports


time (UTC)temp
C
wind
direction
speed
KPH
gust
KPH
rain 1hr
cm
rain 24hr
cm
rain mn
cm
humidity
%
barometer
mb
20260904170043 33 309 0.0 3.2 0.00 0.00 0.00 56 1017.3
20260904164524 33 13 3.2 4.8 0.00 0.00 0.00 60 1017.4
20260904163018 32 21 1.6 4.8 0.00 0.00 0.00 59 1017.6
20260904161519 32 147 4.8 9.7 0.00 0.00 0.00 64 1017.7
20260904160032 31 28 0.0 3.2 0.00 0.00 0.00 64 1017.9
20260904154531 31 10 1.6 4.8 0.00 0.00 0.00 70 1017.9
20260904153033 31 15 1.6 4.8 0.00 0.00 0.00 71 1018.0
20260904151530 30 23 0.0 3.2 0.00 0.00 0.00 72 1018.0
20260904150032 29 146 0.0 3.2 0.00 0.00 0.00 76 1018.1
20260904144517 28 352 1.6 3.2 0.00 0.00 0.00 79 1018.0
20260904143017 27 24 0.0 4.8 0.00 0.00 0.00 82 1018.1
20260904141515 26 352 0.0 0.0 0.00 0.00 0.00 85 1018.0
20260904140030 26 15 0.0 3.2 0.00 0.00 0.00 88 1018.0
20260904134531 25 17 0.0 0.0 0.00 0.00 0.00 90 1017.9
20260904133033 24 17 0.0 1.6 0.00 0.00 0.00 93 1017.8
20260904131531 23 352 0.0 0.0 0.00 0.00 0.00 94 1017.7
20260904130023 22 352 0.0 0.0 0.00 0.00 0.00 96 1017.9
20260904124537 22 312 0.0 0.0 0.00 0.00 0.00 97 1017.7
20260904123014 21 312 0.0 1.6 0.00 0.00 0.00 97 1018.0
20260904121533 21 312 0.0 0.0 0.00 0.00 0.00 97 1018.0
20260904120012 21 143 0.0 0.0 0.00 0.00 0.00 96 1018.0
20260904114535 20 143 0.0 0.0 0.00 0.00 0.00 96 1017.8
20260904113032 20 143 0.0 0.0 0.00 0.00 0.00 96 1017.8
20260904111526 20 143 0.0 0.0 0.00 0.00 0.00 96 1017.6
20260904110024 20 143 0.0 0.0 0.00 0.00 0.00 96 1017.5
20260904104532 20 143 0.0 1.6 0.00 0.00 0.00 96 1017.4
20260904103012 20 92 0.0 1.6 0.00 0.00 0.00 96 1017.1
20260904101512 20 56 0.0 0.0 0.00 0.00 0.00 96 1017.2
20260904100030 20 57 0.0 0.0 0.00 0.00 0.00 96 1016.9
20260904094533 21 22 1.6 3.2 0.00 0.00 0.00 95 1016.8
20260904093051 21 171 0.0 0.0 0.00 0.00 0.00 95 1016.7
20260904091523 21 171 0.0 0.0 0.00 0.00 0.00 95 1016.7
20260904090018 21 171 0.0 0.0 0.00 0.00 0.00 95 1016.7
20260904084516 21 171 0.0 0.0 0.00 0.00 0.00 95 1016.8
20260904083012 21 171 0.0 0.0 0.00 0.00 0.00 95 1016.7
20260904081532 21 171 0.0 0.0 0.00 0.00 0.00 95 1016.7
20260904080031 21 171 0.0 0.0 0.00 0.00 0.00 95 1016.7
20260904074527 21 171 0.0 0.0 0.00 0.00 0.00 95 1016.7
20260904073047 21 171 0.0 0.0 0.00 0.00 0.00 95 1016.7
20260904071524 22 171 0.0 0.0 0.00 0.00 0.00 95 1016.8
20260904070017 22 171 0.0 0.0 0.00 0.00 0.00 95 1016.8
20260904064533 22 171 0.0 0.0 0.00 0.00 0.00 95 1017.0
20260904063039 22 171 0.0 0.0 0.00 0.00 0.00 95 1017.2
20260904061533 22 171 0.0 0.0 0.00 0.00 0.00 95 1017.3
20260904060032 22 171 0.0 0.0 0.00 0.00 0.00 95 1017.6
20260904054530 22 171 0.0 0.0 0.00 0.00 0.00 95 1017.5
20260904053027 22 171 0.0 0.0 0.00 0.00 0.00 94 1017.7
20260904051525 22 171 0.0 0.0 0.00 0.00 0.00 94 1017.7
20260904050033 22 171 0.0 0.0 0.00 0.00 0.00 94 1017.8
20260904044536 23 261 0.0 0.0 0.00 0.00 0.00 94 1017.9
20260904043030 23 261 0.0 0.0 0.00 0.00 0.00 94 1017.9
20260904041533 23 261 0.0 0.0 0.00 0.00 0.00 94 1017.9
20260904040031 23 261 0.0 0.0 0.00 0.00 0.00 93 1017.8
20260904034535 23 261 0.0 0.0 0.00 0.00 0.00 93 1018.0
20260904033030 23 261 0.0 0.0 0.00 0.00 0.00 93 1018.0
20260904031533 23 261 0.0 0.0 0.00 0.00 0.00 92 1017.9
20260904030034 24 261 0.0 0.0 0.00 0.00 0.00 92 1018.0
20260904024534 24 261 0.0 0.0 0.00 0.00 0.00 92 1018.0
20260904023028 24 261 0.0 0.0 0.00 0.00 0.00 90 1018.2
20260904021533 25 159 0.0 0.0 0.00 0.00 0.00 91 1018.4
20260904020026 25 159 0.0 0.0 0.00 0.00 0.00 90 1018.2
20260904014557 25 159 0.0 0.0 0.00 0.00 0.00 89 1018.0
20260904013019 25 159 0.0 0.0 0.00 0.00 0.00 88 1017.7
20260904011533 25 159 0.0 0.0 0.00 0.00 0.00 86 1017.5
20260904010012 26 159 0.0 0.0 0.00 0.00 0.00 86 1017.4
20260904004508 26 159 0.0 0.0 0.00 0.00 0.00 84 1017.2
20260904003009 27 159 0.0 0.0 0.00 0.00 0.00 83 1016.8
20260904001534 27 159 0.0 0.0 0.00 0.00 0.00 80 1016.6
20260904000026 28 159 0.0 0.0 0.00 0.00 0.00 75 1016.4
20260903234518 29 159 0.0 0.0 0.00 0.00 0.00 74 1016.3
20260903233015 30 159 0.0 0.0 0.00 0.00 0.00 72 1016.2
20260903231512 30 159 0.0 0.0 0.00 0.00 0.00 67 1016.2
20260903230018 31 159 0.0 0.0 0.00 0.00 0.00 64 1016.1
20260903224532 31 143 0.0 3.2 0.00 0.00 0.00 61 1016.1
20260903223033 32 170 0.0 3.2 0.00 0.00 0.00 57 1016.1
20260903221528 32 159 1.6 4.8 0.00 0.00 0.00 56 1016.1
20260903220040 32 195 3.2 4.8 0.00 0.00 0.00 56 1016.1
20260903214534 33 130 1.6 6.4 0.00 0.00 0.00 57 1016.3
20260903213036 33 160 3.2 4.8 0.00 0.00 0.00 56 1016.2
20260903211512 32 161 0.0 0.0 0.00 0.00 0.00 55 1016.4
20260903210033 32 346 0.0 3.2 0.00 0.00 0.00 59 1016.4
20260903204530 33 202 0.0 6.4 0.00 0.00 0.00 53 1016.6
20260903203025 33 143 3.2 11.3 0.00 0.00 0.00 54 1016.7
20260903201536 33 148 3.2 6.4 0.00 0.00 0.00 51 1016.8
20260903200018 33 153 0.0 11.3 0.00 0.00 0.00 52 1017.0
20260903194534 34 145 1.6 4.8 0.00 0.00 0.00 53 1017.1
20260903193035 34 5 0.0 4.8 0.00 0.00 0.00 51 1017.4
20260903191533 34 111 1.6 3.2 0.00 0.00 0.00 52 1017.4
20260903190031 35 15 1.6 4.8 0.00 0.00 0.00 50 1017.5
20260903184528 34 266 0.0 9.7 0.00 0.00 0.00 51 1017.7
20260903183026 35 167 0.0 6.4 0.00 0.00 0.00 54 1017.9
20260903181531 34 11 1.6 4.8 0.00 0.00 0.00 49 1018.0
20260903180041 34 169 0.0 6.4 0.00 0.00 0.00 51 1018.3
20260903174517 33 86 1.6 4.8 0.00 0.00 0.00 54 1018.2
20260903173036 33 336 0.0 8.0 0.00 0.00 0.00 57 1018.3
20260903171530 33 160 0.0 4.8 0.00 0.00 0.00 59 1018.6